Погода в Солнечном

Россия / Республика Дагестан     43°16′25″N   46°30′17″E
темп.,
°C
ветер,
м/с
пор.,
м/с
влажн.,
%
обл.,
%
осадки,
мм/ч
давл.,
гПа
погр.,
м
3 марта, ср
ср300:00+3ююз22650 0.0 102422
03:00+2зсз11730 0.0 102222
06:00+1ю12750 0.0 102122
09:00+5в466212 0.0 1019619
12:00+7всв675697 0.0 1017971
15:00+8ссв335392 0.0 10171202
18:00+6зсз4764100 0.1 1019562
21:00+3з61178100 1.6 1023974
4 марта, чт
чт400:00+2з61195100 1.3 1024631
03:00+1зюз5108193 1.9 1026480
06:00+1зюз5118345 0.0 1027376
09:00+4з686123 0.0 1027949
12:00+6зсз45475 0.0 10261148
15:00+7ссз22423 0.0 10251138
18:00+5св23540 0.0 102529
21:00+3юв12660 0.0 102522
5 марта, пт
пт500:00+2ююв12700 0.0 102422
03:00+1ююз11700 0.0 102222
06:00+1зюз12660 0.0 102122
09:00+5с11560 0.0 1020251
12:00+8ссв21450 0.0 1019687
15:00+10св21380 0.0 1018840
18:00+7всв22490 0.0 101924
21:00+5юв22640 0.0 102129
6 марта, сб
сб600:00+5ююв12550 0.0 102022
03:00+4ююв12500 0.0 101922
06:00+3зюз12480 0.0 101922
09:00+9зсз12343 0.0 1018141
12:00+13св322848 0.0 1016368
15:00+16всв352536 0.0 1014531
18:00+10в235258 0.0 101443
21:00+9юв125679 0.0 101430
7 марта, вс
вс700:00+7з2365100 0.0 101357
03:00+6з4961100 0.0 1013224
06:00+6зюз5106017 0.0 1015246
09:00+4сз7109556 2.3 1019641
12:00+1зсз4696100 4.9 1020407
15:00+1сз4596100 5.5 1021415
18:00+1сз2390100 0.4 1023245
21:000ююз238594 0.4 102441